Tracking 18980 objects as of 19-Feb-2018
HD Live streaming from Space Station
objects crossing your sky now

COSMOS 1367

Track COSMOS 1367 now!
COSMOS 1367 is classified as:


NORAD ID: 13205
Int'l Code: 1982-045A
Perigee: 6,639.2 km
Apogee: 33,785.7 km
Inclination: 70.7 °
Period: 718.9 minutes
Semi major axis: 26583 km
RCS: 15.3973 m2 (large)
Launch date: May 20, 1982
Source: Commonwealth of Independent States (former USSR) (CIS)
Launch site: PLESETSK MISSILE AND SPACE COMPLEX (PKMTR)
aabbcc
Your satellite tracking list
Your tracking list is empty




NASA's NSSDC Master Catalog

Two Line Element Set (TLE):
1 13205U 82045A   18047.78214135 +.00000327 +00000-0 +00000-0 0  9993
2 13205 070.6596 199.4920 5105909 053.6690 239.9869 02.00302548261793
Source of the keplerian elements: AFSPC